EHI
22 10 1 0 0 0 0 0 0 0 0 0 0 0 0 0 0 0 0 0 0 0 1 3 3 1 0 0 0 0 0 0 0 0 0 0 0 0 0 0 0 0 0
31 14 1 0 0 0 0 0 0 0 0 0 0 0 0 0 0 0 0 0 0 0 1 2 3 1 1 1 0 0 0 0 0 0 0 0 0 0 0 0 0 0 0
32 14 1 0 0 0 0 0 0 0 0 0 0 0 0 0 0 0 0 0 0 0 0 1 1 1 1 1 0 0 0 0 0 0 0 0 0 0 0 0 0 0 0
17 8 1 1 0 0 0 0 0 0 0 0 0 0 0 0 0 0 0 0 0 0 0 0 0 0 1 1 0 0 0 0 0 0 0 0 0 0 0 0 0 0 0
8 4 2 2 1 0 0 0 0 0 0 0 0 0 0 0 0 0 0 0 0 0 0 0 0 0 0 0 0 0 0 1 1 0 0 0 0 0 0 0 0 0 0
9 5 3 2 1 0 0 0 0 0 0 0 0 0 0 0 0 0 0 0 0 0 0 0 0 0 0 0 0 0 2 3 2 0 0 0 0 0 0 0 0 0 0
8 4 2 1 1 0 0 0 0 0 0 0 0 0 0 0 0 0 0 0 0 0 0 0 0 0 0 0 0 0 3 4 2 0 0 0 0 0 0 0 0 0 0
5 2 0 0 0 0 0 0 0 0 0 0 0 0 0 0 0 0 0 0 0 0 0 0 0 0 0 0 0 0 2 4 2 0 0 0 0 0 0 0 0 0 0
3 1 0 0 0 0 0 0 0 0 0 0 0 0 0 0 0 0 0 0 0 0 0 0 0 0 0 0 0 0 1 3 2 0 0 0 0 0 0 0 0 0 0
1 0 0 0 0 0 0 0 0 0 0 0 0 0 0 0 0 0 0 0 0 0 0 0 0 0 0 0 0 0 0 1 1 0 0 0 0 0 0 0 0 0 0
0 0 0 0 0 0 0 0 0 0 0 0 0 0 0 0 0 0 0 0 0 0 0 0 0 0 0 0 0 0 0 0 0 0 0 0 0 0 0 0 0 0 0
0 0 0 0 0 0 0 0 0 0 0 0 0 0 0 0 0 0 0 0 0 0 0 0 0 0 0 0 0 0 0 0 0 0 0 0 0 0 0 0 1 1 0
0 0 0 0 0 0 0 0 0 0 0 0 0 0 0 0 0 0 0 0 0 0 0 0 0 0 0 0 0 0 0 0 0 0 0 0 0 0 0 1 2 2 1
0 0 0 0 0 0 0 0 0 0 0 0 0 0 0 0 0 0 0 0 0 0 0 0 0 0 0 0 0 0 0 0 0 0 0 1 1 0 0 1 1 1 1
2 1 0 1 1 1 1 1 0 0 0 0 0 0 0 0 0 0 0 0 0 0 0 0 0 0 0 0 0 0 0 0 0 0 0 2 4 2 0 0 0 0 1
5 3 2 2 2 1 1 1 0 0 0 0 0 0 0 0 0 0 0 0 0 0 0 0 0 0 0 0 0 0 0 0 0 0 0 2 5 4 1 0 0 0 0
8 10 12 9 5 5 3 2 0 0 0 0 0 0 0 0 0 0 0 0 0 0 0 0 0 0 0 0 0 0 0 0 0 0 0 1 2 2 0 0 0 0 0
10 20 31 30 26 25 19 11 4 4 6 5 2 0 0 0 0 0 0 0 0 0 0 0 0 0 0 0 0 0 0 0 0 0 0 0 0 0 0 0 0 0 0
11 28 51 62 62 61 52 35 21 18 23 23 13 5 1 0 0 0 0 0 0 0 0 0 1 1 0 0 0 0 0 0 0 0 0 0 0 0 0 0 0 0 0
14 31 63 86 91 90 83 68 52 45 50 51 38 19 5 0 0 0 0 0 0 1 2 4 4 3 0 0 0 0 0 0 0 0 0 0 0 0 0 0 0 0 0
24 39 69 93 100 99 97 90 78 69 67 65 52 30 10 2 0 0 0 0 1 4 8 11 11 5 0 0 0 0 0 0 0 0 0 0 0 0 0 0 0 0 0
44 54 75 92 97 95 91 85 77 65 55 48 39 26 12 4 1 1 1 1 4 9 13 16 15 7 0 0 0 0 0 0 0 0 0 0 0 0 0 0 0 0 0
61 65 75 85 85 76 64 55 49 38 27 20 16 12 8 4 2 4 3 2 5 11 15 16 13 6 0 0 0 0 0 0 0 0 0 0 0 0 0 0 0 0 0
62 61 63 65 58 43 29 22 19 14 8 5 4 3 3 1 2 4 5 3 5 9 12 11 8 4 1 0 0 0 0 0 0 0 0 0 0 0 0 0 0 0 0
54 48 41 36 28 18 9 6 6 5 2 0 0 1 1 0 1 3 3 4 6 7 6 5 5 4 2 0 0 0 0 0 0 0 0 0 0 0 0 0 0 0 0
48 39 27 19 14 9 6 6 5 3 2 1 0 1 1 1 2 2 2 4 7 6 3 3 5 5 2 0 0 0 0 0 0 0 0 0 0 0 0 0 0 0 0
Wind_Speed
12 13 14 12 11 9 8 8 7 7 8 9 9 9 9 9 11 11 11 10 10 10 10 9 9 8 8 8 8 8 8 8 8 8 7 7 7 7 6 6 5 7 8
15 15 14 12 10 9 8 8 7 8 8 9 10 10 10 11 12 11 10 9 10 10 10 10 9 9 8 8 8 8 8 7 6 5 4 5 6 6 7 8 10 6 8
16 14 13 12 10 9 8 8 8 8 8 9 10 10 11 12 11 10 9 9 9 10 10 9 10 10 10 10 10 9 8 6 4 3 2 1 4 6 7 8 8 9 8
16 13 12 12 10 9 9 8 8 8 8 9 9 10 10 10 10 9 9 9 9 10 10 10 11 12 12 12 11 9 7 4 3 4 2 3 3 7 7 7 7 8 7
14 12 14 13 10 9 8 8 8 8 8 8 9 9 10 10 10 9 9 9 9 9 10 11 11 12 12 12 11 9 7 6 6 5 5 5 4 6 8 6 5 6 6
13 13 14 12 10 9 9 8 8 8 9 9 9 9 10 10 10 9 9 8 8 8 9 9 10 11 11 11 10 9 8 8 6 5 6 5 4 6 7 6 5 5 5
13 13 13 12 11 10 9 9 8 9 9 10 10 9 10 10 10 10 9 8 8 8 8 7 9 10 10 10 10 8 8 11 1 7 6 5 5 7 7 6 6 6 6
13 13 13 12 11 10 10 10 9 10 11 10 10 10 10 10 10 10 9 7 7 7 8 8 9 10 10 10 8 7 8 10 4 8 7 6 8 9 8 7 7 6 5
13 12 12 11 10 10 10 11 11 11 11 11 11 11 11 11 10 10 9 8 7 7 8 9 9 9 8 7 5 4 6 9 7 3 9 5 8 9 9 8 7 6 6
12 11 11 12 12 10 9 11 12 12 12 12 12 12 12 11 10 10 9 8 8 8 8 8 7 7 6 4 2 1 5 7 3 8 5 5 8 8 8 7 7 7 6
12 10 11 11 11 11 11 11 11 11 11 11 10 12 12 7 7 7 10 9 8 9 8 7 7 7 6 4 4 4 4 2 5 7 4 6 7 7 7 7 6 6 6
12 12 10 11 10 10 10 9 7 7 7 7 7 8 6 6 6 9 10 9 9 9 8 8 8 7 6 4 5 5 2 3 6 6 4 6 6 6 6 6 6 6 5
10 12 11 11 11 10 8 7 5 4 5 6 9 9 6 5 7 7 4 5 5 7 5 6 6 6 6 3 4 3 4 6 5 5 4 7 6 7 8 8 7 6 6
10 9 12 11 11 11 10 6 6 4 4 4 7 9 6 5 6 7 5 5 5 4 4 4 4 2 2 2 4 6 7 6 5 4 4 8 8 8 9 9 9 9 8
11 10 10 11 11 10 9 7 7 6 5 5 4 5 6 4 5 6 5 4 5 4 3 2 0 3 5 6 6 6 7 8 7 5 4 11 11 11 10 11 11 10 10
12 12 10 11 10 10 9 7 7 7 5 4 4 4 6 4 4 5 4 4 3 4 3 1 3 2 4 4 5 5 4 6 9 7 5 8 14 13 13 12 12 12 12
12 11 10 9 11 10 10 8 6 6 7 5 4 5 6 5 5 5 4 4 3 3 4 2 3 3 4 3 4 5 4 3 6 8 7 5 7 13 15 15 15 15 14
13 12 11 9 9 9 7 7 5 6 7 5 5 4 5 6 6 5 4 4 4 4 3 4 3 2 3 2 2 3 2 1 4 6 6 5 5 6 10 15 16 15 15
11 12 13 10 8 8 7 5 4 5 6 5 5 4 4 6 6 5 4 4 5 3 3 4 3 3 3 3 3 1 2 2 1 4 6 6 5 6 5 9 14 14 14
8 9 10 8 7 6 5 3 2 3 3 3 4 4 4 3 5 5 4 4 4 3 3 3 4 3 3 3 2 2 1 1 3 4 4 4 4 6 6 7 6 8 13
5 5 8 9 6 4 3 2 1 2 2 3 2 3 3 3 4 4 5 5 3 4 4 4 4 4 2 2 2 2 1 0 4 1 2 3 4 4 4 5 5 5 6
6 6 8 8 6 5 3 2 2 2 2 3 3 3 4 5 5 3 6 4 3 3 5 4 4 3 2 2 3 2 1 1 1 2 2 2 3 2 4 6 5 5 6
7 6 7 8 7 5 4 2 1 2 1 2 4 3 4 5 5 4 5 5 4 3 4 4 5 5 3 2 2 4 3 3 2 1 4 2 3 1 0 2 4 6 8
7 7 9 8 7 6 5 3 4 4 4 5 4 5 5 6 6 5 4 5 5 4 4 5 5 4 5 3 3 3 4 5 4 2 2 2 4 3 3 1 3 4 7
9 7 8 7 7 7 6 6 4 3 3 3 3 5 6 5 6 6 6 5 5 4 5 4 4 5 5 5 4 4 3 2 4 4 3 3 2 3 3 3 2 3 5
9 7 7 7 6 5 5 5 5 5 4 3 3 3 3 3 4 6 6 6 6 5 6 6 5 6 7 7 6 6 4 3 3 2 4 5 4 4 4 3 3 3 3
Wind_Direction
127 129 141 142 142 139 131 122 115 110 112 115 115 116 117 110 104 97 89 85 79 71 67 66 67 69 73 78 78 75 75 74 72 76 92 99 93 81 69 48 28 79 75
126 130 141 142 145 145 140 134 126 120 117 119 119 120 119 114 109 102 93 88 81 75 70 68 70 71 73 78 79 77 76 76 69 65 95 115 104 86 72 65 62 72 72
124 131 141 142 145 148 148 145 138 131 124 120 119 119 120 121 117 108 100 93 86 81 76 71 73 72 73 74 74 73 72 69 55 14 331 164 120 96 81 74 71 74 74
130 139 141 143 146 149 153 154 148 141 132 122 118 117 121 125 122 112 102 95 88 82 80 81 76 71 72 72 70 67 62 47 14 342 341 75 108 106 95 85 76 78 80
131 133 132 146 150 154 157 160 157 151 143 134 127 123 122 123 123 115 107 98 91 87 84 86 80 75 74 71 67 58 42 20 354 25 54 68 76 112 112 110 98 91 90
123 125 135 147 154 159 161 163 163 157 151 142 136 132 128 126 124 120 114 103 97 93 88 85 86 83 79 73 63 45 21 1 344 72 61 65 71 107 117 121 116 106 102
127 128 138 147 154 160 163 165 163 158 152 146 143 138 133 130 128 126 120 109 103 99 91 87 92 91 81 72 58 33 3 343 345 101 82 68 70 92 107 118 123 114 113
129 132 135 148 153 158 161 162 158 155 152 148 143 139 136 133 133 131 123 114 108 102 92 89 92 88 78 68 55 25 349 334 14 104 98 79 79 85 92 99 107 110 118
134 136 143 151 155 157 157 157 153 152 152 147 140 138 137 136 137 133 125 121 118 107 96 93 91 87 81 74 63 10 327 325 322 90 98 79 78 82 86 85 90 100 108
142 147 153 157 154 156 153 153 151 151 151 145 140 140 139 140 142 140 133 132 131 121 111 109 111 112 112 114 126 257 295 309 336 80 81 87 83 83 84 84 84 87 95
151 153 154 156 157 154 150 147 148 149 149 146 144 148 149 158 154 156 130 141 137 132 134 149 163 159 156 169 190 212 266 247 95 85 69 83 90 90 89 87 88 91 95
157 159 155 151 154 149 142 145 153 157 154 169 159 167 186 177 147 125 133 141 142 147 164 191 201 194 190 199 205 210 248 68 84 90 69 73 95 102 102 99 95 97 101
160 159 158 153 152 139 134 152 155 155 170 189 165 182 201 152 123 122 145 147 157 170 194 199 223 223 202 190 168 144 78 68 65 72 67 72 87 98 98 96 93 91 98
156 154 155 156 151 150 150 151 154 165 182 198 180 190 176 157 151 155 163 174 176 198 205 205 222 227 157 139 110 106 90 87 79 73 69 78 85 94 97 92 86 83 83
151 158 155 154 155 160 150 155 169 169 179 197 185 186 161 160 159 157 171 173 192 166 198 248 113 53 51 41 61 85 103 108 102 90 73 80 83 83 90 94 91 86 83
156 161 156 159 157 160 155 171 169 165 175 179 174 194 170 165 162 160 166 172 178 152 187 189 102 95 71 57 52 48 81 117 123 121 102 79 79 82 85 88 86 83 81
158 159 155 167 164 168 165 178 166 162 169 168 176 204 184 173 171 165 164 165 175 180 183 149 116 99 106 110 83 63 38 52 121 125 125 112 85 77 82 84 82 79 77
161 158 158 181 171 165 162 176 166 172 169 167 168 207 199 182 183 170 158 168 190 188 153 118 121 116 123 125 116 115 105 357 97 127 128 127 123 99 83 85 81 78 76
156 156 166 174 163 162 164 173 170 169 163 166 166 189 206 196 191 168 164 177 188 166 141 146 147 140 127 99 81 49 89 75 51 106 117 117 121 125 117 98 90 83 76
148 158 157 150 151 147 145 162 135 133 151 151 150 171 202 217 205 167 153 188 186 154 146 150 140 128 123 135 153 100 55 111 74 51 83 113 117 122 140 133 111 90 82
137 139 134 137 135 117 116 137 145 159 133 126 139 175 202 250 236 174 161 191 192 158 157 160 131 128 123 153 113 104 273 309 102 129 111 104 108 133 146 136 139 129 97
121 115 116 118 122 123 126 140 150 161 172 168 173 194 204 232 245 208 176 171 173 155 164 174 132 133 160 179 136 136 226 354 328 153 84 142 156 162 154 146 137 134 123
116 118 111 117 121 128 136 136 157 152 212 187 189 204 211 217 239 232 200 171 171 160 167 173 148 149 167 233 172 153 171 198 210 178 198 202 127 124 95 120 141 123 114
125 121 122 131 145 156 164 185 196 185 201 206 196 198 207 210 222 228 220 195 180 168 170 182 173 162 160 199 254 217 193 168 165 173 217 197 166 181 149 78 70 100 112
129 128 132 144 154 161 178 184 204 214 213 230 207 185 197 200 206 207 215 205 194 180 182 185 193 180 178 181 223 257 250 213 200 145 181 196 173 179 167 169 142 106 114
134 141 142 149 149 155 175 188 200 216 217 225 218 183 181 182 202 208 209 208 202 194 197 198 208 200 194 191 206 237 230 202 230 184 167 178 178 194 170 153 152 133 127